Kahului, HI

1:17 AM HST on July 26, 2016 (GMT -1000)
Kahului

Weather History for PHOG - April, 2014

Change the Weather History Date:

Tuesday, April 1, 2014

  Actual Average Record
Temperature  
Mean Temperature 77 °F 74 °F  
Max Temperature 81 °F 82 °F 88 °F (2006)
Min Temperature 72 °F 65 °F 57 °F (1972)
Degree Days  
Heating Degree Days 0 0  
Month to date heating degree days 0 0  
Since 1 July heating degree days 0 0  
Cooling Degree Days 12 9  
Month to date cooling degree days 12 9  
Year to date cooling degree days 816 663  
Growing Degree Days 26 (Base 50)    
Moisture  
Dew Point 68 °F    
Average Humidity 80    
Maximum Humidity 93    
Minimum Humidity 67    
Precipitation  
Precipitation T in 0.08 in 2.06 in (1961)
Month to date precipitation T 0.08  
Year to date precipitation 10.40 7.29  
Snow  
Snow 0.00 in - - ()
Month to date snowfall 0.0  
Since 1 July snowfall 0.0  
Snow Depth 0.00 in    
Sea Level Pressure  
Sea Level Pressure 30.04 in    
Wind  
Wind Speed 16 mph (NE)    
Max Wind Speed 23 mph    
Max Gust Speed 35 mph    
Visibility 10 miles    
Events Rain    
T = Trace of Precipitation, MM = Missing Value Source: NWS Daily Summary

Daily Weather History Graph

Daily Weather History Graph

Search for Another Location

Airport or City:

Trip Planner

Search our weather history database for the weather conditions in past years. The results will help you decide how hot, cold, wet, or windy it might be!

Date:

Astronomy

Apr. 01, 2014 Rise Set
Actual Time 6:18 AM HST 6:40 PM HST
Civil Twilight 5:56 AM HST 7:02 PM HST
Nautical Twilight 5:30 AM HST 7:28 PM HST
Astronomical Twilight 5:04 AM HST 7:54 PM HST
Moon 7:45 AM HST (4/1) 8:55 PM HST (4/1)
Length of Visible Light 13h 06m
Length of Day
12h 21m
Waxing Crescent, 6% of the Moon is Illuminated
Apr 1
Waxing Crescent
Apr 6
First Quarter
Apr 14
Full
Apr 21
Last Quarter
Apr 28
New

Hourly Weather History & Observations

Time (HST) Temp. Heat Index Dew Point Humidity Pressure Visibility Wind Dir Wind Speed Gust Speed Precip Events Conditions
12:54 AM - - - N/A% 30.05 in 9.0 mi ENE 15.0 mph 21.9 mph 0.00 in Rain Light Rain
1:54 AM - - - N/A% 30.03 in 10.0 mi NE 10.4 mph - 0.01 in Rain Light Rain
2:54 AM - - - N/A% 30.01 in 10.0 mi ENE 13.8 mph 19.6 mph N/A   Scattered Clouds
3:54 AM - - - N/A% 30.00 in 10.0 mi ENE 12.7 mph - N/A   Clear
4:54 AM - - - N/A% 30.01 in 10.0 mi NE 12.7 mph - 0.00 in   Scattered Clouds
5:54 AM 73.4 °F - 69.8 °F 88% 30.03 in 10.0 mi ENE 13.8 mph 21.9 mph N/A   Mostly Cloudy
6:54 AM 71.6 °F - 69.8 °F 94% 30.06 in 8.0 mi ENE 13.8 mph 20.7 mph 0.00 in Rain Light Rain
7:54 AM 73.4 °F - 69.8 °F 88% 30.06 in 10.0 mi ENE 17.3 mph 24.2 mph 0.06 in   Mostly Cloudy
8:54 AM 73.4 °F - 69.8 °F 88% 30.07 in 10.0 mi ENE 13.8 mph 24.2 mph N/A   Overcast
9:54 AM 75.9 °F - 72.0 °F 87% 30.06 in 10.0 mi NE 23.0 mph 34.5 mph 0.00 in Rain Light Rain
10:54 AM 79.0 °F - 69.1 °F 72% 30.06 in 10.0 mi ENE 21.9 mph 32.2 mph 0.00 in   Clear
11:54 AM 80.1 °F 82.7 °F 68.0 °F 67% 30.06 in 10.0 mi ENE 17.3 mph 29.9 mph N/A   Mostly Cloudy
12:54 PM 80.1 °F 82.7 °F 68.0 °F 67% 30.04 in 10.0 mi ENE 18.4 mph 29.9 mph N/A   Scattered Clouds
1:54 PM 75.9 °F - 68.0 °F 76% 30.01 in 10.0 mi ENE 17.3 mph 29.9 mph 0.00 in Rain Light Rain
2:54 PM 75.0 °F - 69.1 °F 82% 30.00 in 10.0 mi NE 20.7 mph 26.5 mph 0.00 in   Mostly Cloudy
3:54 PM 75.9 °F - 68.0 °F 76% 30.00 in 10.0 mi NE 16.1 mph - 0.00 in   Mostly Cloudy
4:54 PM 75.9 °F - 68.0 °F 76% 30.00 in 10.0 mi ENE 18.4 mph 29.9 mph N/A   Mostly Cloudy
5:54 PM 75.9 °F - 66.0 °F 71% 30.02 in 10.0 mi NE 19.6 mph 24.2 mph N/A   Mostly Cloudy
6:54 PM 73.9 °F - 66.9 °F 79% 30.05 in 10.0 mi NE 16.1 mph 23.0 mph N/A   Scattered Clouds
7:54 PM 73.0 °F - 66.9 °F 81% 30.06 in 10.0 mi NE 15.0 mph - N/A   Clear
8:54 PM 73.0 °F - 66.0 °F 79% 30.08 in 10.0 mi ENE 18.4 mph 23.0 mph N/A   Clear
9:54 PM 73.9 °F - 66.0 °F 76% 30.09 in 10.0 mi ENE 11.5 mph - N/A   Clear
10:54 PM 73.9 °F - 66.9 °F 79% 30.09 in 10.0 mi NE 18.4 mph 26.5 mph N/A   Clear
11:54 PM 73.9 °F - 64.9 °F 73% 30.10 in 10.0 mi NE 13.8 mph 21.9 mph N/A   Partly Cloudy